Plattsburgh, NY

3:03 AM EST on December 11, 2017 (GMT -0500)
Plattsburgh International

Weather History for KPBG - July, 2013

Change the Weather History Date:

Monday, July 29, 2013

  Actual Average Record
Temperature  
Mean Temperature 70 °F 69 °F  
Max Temperature 78 °F 80 °F 95 °F (1949)
Min Temperature 61 °F 59 °F 44 °F (1987)
Degree Days  
Heating Degree Days 0 0  
Month to date heating degree days 12  
Since 1 June heating degree days 97  
Since 1 July heating degree days 12  
Cooling Degree Days 5 5  
Month to date cooling degree days 206 139  
Year to date cooling degree days 281 209  
Since 1 June cooling degree days 261 201  
Growing Degree Days 18 (Base 50)    
Moisture  
Dew Point 59 °F    
Average Humidity 76    
Maximum Humidity 97    
Minimum Humidity 54    
Precipitation  
Precipitation 0.02 in - 1.53 in (1993)
Month to date precipitation 3.48  
Year to date precipitation 20.56  
Sea Level Pressure  
Sea Level Pressure 30.00 in    
Wind  
Wind Speed 4 mph (ENE)    
Max Wind Speed 16 mph    
Max Gust Speed 18 mph    
Visibility 10 miles    
Events Rain    
T = Trace of Precipitation, MM = Missing Value Source: NWS Daily Summary

Daily Weather History Graph

Daily Weather History Graph

Search for Another Location

Airport or City:

Trip Planner

Search our weather history database for the weather conditions in past years. The results will help you decide how hot, cold, wet, or windy it might be!

Date:

Astronomy

Jul. 29, 2013 Rise Set
Actual Time 5:37 AM EDT 8:22 PM EDT
Civil Twilight 5:03 AM EDT 8:56 PM EDT
Nautical Twilight 4:20 AM EDT 9:39 PM EDT
Astronomical Twilight 3:30 AM EDT 10:28 PM EDT
Moon 11:56 PM EDT (7/29) 1:38 PM EDT (7/29)
Length of Visible Light 15h 53m
Length of Day
14h 45m
Waning Gibbous, 51% of the Moon is Illuminated
Jul 29
Waning Gibbous
Jul 29
Last Quarter
Aug 6
New
Aug 14
First Quarter
Aug 20
Full

Hourly Weather History & Observations

Time (EDT) Temp. Dew Point Humidity Pressure Visibility Wind Dir Wind Speed Gust Speed Precip Events Conditions
12:53 AM 66.0 °F 62.1 °F 87% 29.94 in 10.0 mi Calm Calm - N/A   Overcast
1:53 AM 64.9 °F 63.0 °F 93% 29.94 in 10.0 mi Calm Calm - 0.00 in Rain Light Rain
2:53 AM 64.0 °F 63.0 °F 96% 29.95 in 10.0 mi Calm Calm - 0.00 in   Mostly Cloudy
3:53 AM 64.0 °F 62.1 °F 93% 29.97 in 10.0 mi Calm Calm - 0.02 in Rain Light Rain
4:53 AM 63.0 °F 59.0 °F 87% 29.98 in 10.0 mi Calm Calm - 0.00 in   Mostly Cloudy
5:53 AM 61.0 °F 59.0 °F 93% 29.98 in 10.0 mi Calm Calm - N/A   Partly Cloudy
6:53 AM 64.0 °F 60.1 °F 87% 30.00 in 10.0 mi Variable 3.5 mph - N/A   Scattered Clouds
7:53 AM 66.0 °F 60.1 °F 81% 30.00 in 10.0 mi Calm Calm - N/A   Partly Cloudy
8:53 AM 69.1 °F 59.0 °F 70% 30.01 in 10.0 mi NW 3.5 mph - N/A   Clear
9:53 AM 71.1 °F 61.0 °F 70% 30.01 in 10.0 mi Variable 4.6 mph - N/A   Clear
10:53 AM 73.0 °F 59.0 °F 61% 30.00 in 10.0 mi ENE 6.9 mph - N/A   Clear
11:53 AM 72.0 °F 57.9 °F 61% 29.99 in 10.0 mi SSE 8.1 mph - N/A   Scattered Clouds
12:53 PM 73.0 °F 57.0 °F 57% 30.00 in 10.0 mi SSE 3.5 mph - N/A   Overcast
1:53 PM 75.9 °F 60.1 °F 58% 29.98 in 10.0 mi SE 8.1 mph - 0.00 in   Partly Cloudy
2:53 PM 75.0 °F 57.9 °F 55% 29.98 in 10.0 mi SE 6.9 mph - N/A   Mostly Cloudy
3:53 PM 73.9 °F 59.0 °F 59% 29.99 in 10.0 mi NNE 11.5 mph - N/A   Overcast
4:53 PM 75.0 °F 57.9 °F 55% 29.99 in 10.0 mi NNE 9.2 mph - N/A   Overcast
5:53 PM 73.9 °F 60.1 °F 62% 29.99 in 10.0 mi ENE 4.6 mph - N/A   Mostly Cloudy
6:53 PM 70.0 °F 59.0 °F 68% 30.00 in 10.0 mi ENE 3.5 mph - N/A   Partly Cloudy
7:53 PM 70.0 °F 59.0 °F 68% 30.02 in 10.0 mi NNE 5.8 mph - N/A   Mostly Cloudy
8:53 PM 66.9 °F 59.0 °F 76% 30.05 in 10.0 mi WNW 4.6 mph - N/A   Mostly Cloudy
9:53 PM 66.9 °F 55.0 °F 66% 30.07 in 10.0 mi Calm Calm - N/A   Overcast
10:53 PM 64.9 °F 53.1 °F 65% 30.07 in 10.0 mi Calm Calm - N/A   Overcast
11:53 PM 64.0 °F 52.0 °F 65% 30.08 in 10.0 mi WSW 3.5 mph - N/A   Overcast